Skip Page Navigation
NASA JPL Caltech
NASA Logo - Jet Propulsion Laboratory + View the NASA Portal
+ Near-Earth Object (NEO) Program
Search JPL
JPL Home Earth Solar System Stars & Galaxies Technology
JPL Solar System Dynamics
BODIES ORBITS EPHEMERIDES TOOLS PHYSICAL DATA DISCOVERY FAQ SITE MAP
JPL Small-Body Database Browser
Search: [ help ]  
23404 Bomans (1972 RG)
Classification: Main-belt Asteroid          SPK-ID: 2023404
Ephemeris | Orbit Diagram | Orbital Elements | Physical Parameters | Discovery Circumstances ]

[ hide orbit diagram ]
Orbit Diagram
Note: Make sure you have Java enabled on your browser to see the applet. This applet is provided as a 3D orbit visualization tool. The applet was implemented using 2-body methods, and hence should not be used for determining accurate long-term trajectories (over several years or decades) or planetary encounter circumstances. For accurate long-term ephemerides, please instead use our Horizons system.
Orbit Viewer

Additional Notes: the orbits shown in the applet are color coded. The planets are white lines, and the asteroid/comet is a blue line. The bright white line indicates the portion of the orbit that is above the ecliptic plane, and the darker portion is below the ecliptic plane. Likewise for the asteroid/comet orbit, the light blue indicates the portion above the ecliptic plane, and the dark blue the portion below the ecliptic plane.

Orbit Viewer applet originally written and kindly provided by Osamu Ajiki (AstroArts), and further modified by Ron Baalke (JPL).


Orbital Elements at Epoch 2456400.5 (2013-Apr-18.0) TDB
Reference: MPO231580 (heliocentric ecliptic J2000)
 Element Value Uncertainty (1-sigma)   Units 
e 0.2473818 n/a  
a 2.2829003 n/a AU
q 1.7181523 n/a AU
i 21.73715 n/a deg
node 172.93039 n/a deg
peri 244.18225 n/a deg
M 237.98883 n/a deg
tp 2456827.4980946
(2014-Jun-18.99809460)
n/a JED
period 1259.8790264
3.45
n/a
n/a
d
yr
n 0.28574172 n/a deg/d
Q 2.8476483 n/a AU
  Orbit Determination Parameters
   # obs. used (total)      565  
   first obs. used      1972-??-??  
   last obs. used      2012-05-25  
   # oppositions      13  
   planetary ephem.      DE403  
   condition code      0  
   fit RMS      0.54  
   data source      MPC:mpn  
   producer      MPCLINUX  

Additional Information
 T_jup = 3.472 

Ephemeris | Orbit Diagram | Orbital Elements | Physical Parameters | Discovery Circumstances ]

Physical Parameter Table
Parameter Symbol Value Units Sigma Reference Notes
absolute magnitude H 14.5 mag n/a PDS3 (MPO 11074)  

23404 Bomans           Discovered 1972 Sept. 15 by T. Gehrels at Palomar.
Godfried Jan Arnold Bomans (1913-1971) was a popular Dutch author known for his books of modern-day fairy tales and his short, humorous pieces full of parody and acerbic wit. His young-adult fantasy novel Eric in the Land of the Insects (1940) was turned into a film in 2004. The name was suggested by L. E. Timmerman.
NOTE: some special characters may not display properly (any characters within {} are an attempt to place the proper accent above a character)
Reference: 20091202/MPCPages.arcLast Updated: 2010-04-12

Alternate Designations
 1972 RG = 1955 WJ = 1986 RG4 = 1991 EO7 = 1998 DO13 = 1999 LJ31 = 2001 BH51 
Ephemeris | Orbit Diagram | Orbital Elements | Physical Parameters | Discovery Circumstances ]
ABOUT SSD CREDITS/AWARDS PRIVACY/COPYRIGHT GLOSSARY LINKS
FirstGov 2013-Jun-19 17:38 UT
(server date/time)  
NASA Home Page
Site Manager:   Donald K. Yeomans
Webmaster  Alan B. Chamberlin